CYUY

Rouyn Noranda Airport

ICAO Code CYUY
IATA Code YUY
Name Rouyn Noranda Airport
Location Rouyn-Noranda, Quebec, CA
Elevation 988 Feet / 301.1 Meters
Latitude 48.20611111
Longitude -78.83555556
METAR CYUY 012300Z 36008KT 15SM FEW075 SCT240 19/07 A2995 RMK CU1CI2 SLP150 DENSITY ALT 1700FT
Extra information Display Charts and CFS
Display NOTAMS
Runway Length Width Surface Elevation
08 7500 ft 150 ft ASP 973 ft
26 7500 ft 150 ft ASP 988 ft

Mandatory Routes

Rouyn Noranda Airport

Direction Destination Level Remark Type Route
DEP TO SE L RNAV YUY B7 YMW T717 BEMOG